This is the latest recevied weather packets stored in our database for station/object K1AWR. If no packets are shown the sender has not sent any weather packets the latest 10 day(s).
| Time | Temp. | Humidity | Pressure | Rain* | Wind** | Luminosity | Snow |
|---|---|---|---|---|---|---|---|
| 1777619859 | 6.67° C | 77% | 1010.3 hPa | 0 mm | - | 0 W/m² | - |
| 1777619555 | 6.67° C | 75% | 1010.2 hPa | 0 mm | - | 0 W/m² | - |
| 1777619251 | 6.67° C | 75% | 1010.2 hPa | 0 mm | - | 0 W/m² | - |
| 1777618945 | 6.67° C | 75% | 1010.3 hPa | 0 mm | - | 0 W/m² | - |
| 1777618640 | 6.11° C | 77% | 1010.1 hPa | 0 mm | - | 0 W/m² | - |
| 1777618335 | 6.11° C | 79% | 1010.1 hPa | 0 mm | - | 0 W/m² | - |
| 1777618033 | 5.56° C | 82% | 1010.2 hPa | 0 mm | - | 0 W/m² | - |
| 1777617729 | 5° C | 83% | 1010.1 hPa | 0 mm | - | 0 W/m² | - |
| 1777617429 | 5.56° C | 84% | 1010 hPa | 0 mm | - | 0 W/m² | - |
| 1777617128 | 5.56° C | 84% | 1009.9 hPa | 0 mm | - | 0 W/m² | - |
| 1777616823 | 5.56° C | 83% | 1010.1 hPa | 0 mm | - | 0 W/m² | - |
| 1777616518 | 6.11° C | 82% | 1009.9 hPa | 0 mm | - | 0 W/m² | - |
| 1777616213 | 6.11° C | 80% | 1010 hPa | 0 mm | - | 0 W/m² | - |
| 1777615911 | 6.67° C | 77% | 1010.2 hPa | 0 mm | - | 0 W/m² | - |
| 1777615608 | 6.67° C | 76% | 1010 hPa | 0 mm | - | 0 W/m² | - |
| 1777615304 | 6.67° C | 75% | 1010.1 hPa | 0 mm | - | 0 W/m² | - |
| 1777615003 | 7.22° C | 75% | 1010 hPa | 0 mm | - | 0 W/m² | - |
| 1777614700 | 7.78° C | 71% | 1010.3 hPa | 0 mm | - | 0 W/m² | - |
| 1777614395 | 7.78° C | 71% | 1010.2 hPa | 0 mm | - | 0 W/m² | - |
| 1777614091 | 7.78° C | 71% | 1010.2 hPa | 0 mm | - | 0 W/m² | - |
| 1777613786 | 7.78° C | 73% | 1010.1 hPa | 0 mm | - | 0 W/m² | - |
| 1777613484 | 7.78° C | 69% | 1010.2 hPa | 0 mm | - | 0 W/m² | - |
| 1777613180 | 7.78° C | 72% | 1010.3 hPa | 0 mm | - | 0 W/m² | - |
| 1777612877 | 7.78° C | 68% | 1010.1 hPa | 0 mm | - | 0 W/m² | - |
| 1777612573 | 7.78° C | 69% | 1010.2 hPa | 0 mm | - | 0 W/m² | - |
* Rain latest hour (hover to see other rain measurements)
** Current wind speed in m/s (hover to see current wind gust speed)